SATCOM K2 R/B(PAM-D2), 16295

Orbit data source: Space-Track

SATCOM K2 R/B(PAM-D2), 16295 is space debris in HEO originally from a launch on Wed, 27 Nov 1985 UTC launched from the Air Force Eastern Test Range (AFETR). Debris objects in space refer to the collection of defunct objects orbiting the Earth. Examples of debris include non-operational satellites, rocket bodies, and fragments generated from explosions, collisions, or faulty payload assembly.

Loading next visibility...
Identifier
16295, 1985-109H
Orbit
HEO
Country
Flag of USUS
Related business
Manufacturer
Thiokol/UT
Mission
Spacecraft
Bus & Motor
STAR 63, Unknown motor
Mass
230 kg wet, 230 kg dry
Launch date (UTC)
1985-11-27 (40 years ago)
Launch vehicle
Unknown
Launch site
Air Force Eastern Test Range (AFETR)
Object type
Payload
Rocket body
Debris
Shape & HBR
Cone + Cyl, 0.9 m
Radar Cross Section
3.267 m², Large (>1 m²)

Expand to show TLE details & history
Last TLE update: 15 hours ago

TLE from 15 hours ago
0 SATCOM K2 R/B(PAM-D2)
1 16295U 85109H   25259.27465223  .00000847  00000-0  15445-2 0  9990
2 16295  26.0189 112.0516 7122810  93.7067 342.7510  2.42086854269211
Epoch: 2025-09-16T06:35Z
TLE epoch observation values (Epoch: 2025-09-16T06:35:29.952Z)
Latitude
0.00001°
Longitude
17.82616°
Altitude
5,676.102 km
Speed
7.008 km/s
True Right ascension
07h 28m 40s
True Declination
0° 00' 00"
Sunlit
Object was in daylight at epoch
Visualization orbit readout
Latitude
Unknown
Longitude
Unknown
Altitude
Unknown
Speed
Unknown
Apparent Right ascension
Unknown
Apparent Declination
Unknown
Sunlit
N/A
Visualization observer readout
Local Sidereal Time
13:57:34
Azimuth
Unknown
Elevation
Unknown
Doppler factor
Unknown
Orbital elements
Apogee altitude
33,745.599 km
Perigee altitude
363.958 km
Semi-major axis
23,432.915 km
Eccentricity
0.71228
Inclination
26.0189°
RAAN
112.0516°
Arg. of periapsis
93.7067°
True anomaly
266.36979°
Mean anomaly
342.751°
Eccentric anomaly
312.81352°
Mean motion
0.60507 °/min
Orbital period
594.98 mins
BSTAR
0.0015445
Loading maneuver chart data...
Computing Atmospheric mass density...
Loading historical data...
Loading historical data...
Loading historical data...
Loading historical data...
Loading historical data...
Loading historical data...
Loading historical data...

Documentation

Showing up to 5 results
|